Location: Coulad�re
(43.2015°N, 1.0903°E)
Time: 03:42:42
(UTC+00:00)

Daily predictions for brighter satellites

Satellite Brightness Start Highest point End
(mag) Time Altitude Azimuth Time Altitude Azimuth Time Altitude Azimuth
Cosmos 1943 Rocket 2.9 04:06:39 48° NE 04:06:39 48° NE 04:10:51 10° NNE
Cosmos 2082 Rocket 4.4 04:15:38 13° S 04:15:38 13° S 04:16:16 10° S
CENTAUR R/B 2.5 04:16:08 72° NNE 04:16:08 72° NNE 04:22:24 10° NE
Cosmos 2297 4.0 04:21:06 63° NE 04:21:06 63° NE 04:25:53 10° NNE
NOSS 3-2 (A) 3.8 04:27:50 49° N 04:27:50 49° N 04:32:50 10° NNE
Cosmos 2278 Rocket 4.5 04:33:50 11° N 04:33:50 11° N 04:34:05 10° N
NOSS 3-2 (C) 3.1 04:33:35 79° SSW 04:33:59 89° ESE 04:40:21 10° NE
Envisat 4.0 04:32:00 10° NNE 04:36:54 46° E 04:41:45 10° S
Meteor 2-3 Rocket 3.6 04:35:25 10° S 04:41:04 88° W 04:46:50 10° N
Cosmos 968 Rocket 3.4 04:42:38 44° SSW 04:44:19 83° ESE 04:49:28 10° NNE
Genesis I 3.6 04:49:24 65° E 04:49:24 65° E 04:53:04 10° SE
Cosmos 921 Rocket 3.4 04:50:35 44° NNE 04:51:45 62° ENE 04:56:09 10° SSE
Meteor 1-26 Rocket 4.2 04:53:51 20° NNW 04:58:04 79° W 05:03:48 10° S
Cosmos 1812 3.3 04:56:57 34° NNE 04:58:20 54° E 05:02:05 10° SSE
Gbstr 26 Del rocket 3.9 05:01:04 32° S 05:01:04 32° S 05:04:01 10° SSE
Cosmos 1570 Rocket 4.4 05:02:26 44° SW 05:02:26 44° SW 05:06:47 10° S
USA 238 DEB 3.6 05:00:10 43° WSW 05:02:06 58° NW 05:08:52 10° NNE
USA 238 3.6 05:00:14 43° WSW 05:02:12 59° NW 05:08:58 10° NNE
Cosmos 2344 3.9 05:03:34 37° WNW 05:05:12 42° NW 05:12:40 10° NNE
Cosmos 1151 Rocket 3.5 05:01:35 14° N 05:05:13 61° E 05:09:32 10° SSE
Cosmos 1766 Rocket 4.2 05:01:10 10° S 05:05:24 55° E 05:09:39 10° NNE
Cosmos 2034 Rocket 4.4 05:09:02 37° W 05:09:02 37° W 05:14:13 10° SSW
USA 215 3.4 05:02:44 10° ESE 05:09:14 72° NE 05:13:03 27° NW
Cosmos 1782 3.3 05:15:56 41° SW 05:15:56 41° SW 05:18:52 10° S
Meteor 1-31 Rocket 2.7 05:11:24 10° NNE 05:15:18 84° E 05:19:13 10° SSW
Cosmos 2279 Rocket 4.1 05:09:42 10° N 05:15:54 74° E 05:22:05 10° SSE
Cosmos 1328 Rocket 4.1 05:13:33 10° N 05:17:54 58° E 05:22:10 10° SSE
Cosmos 2369 Rocket 2.0 05:14:13 10° SSW 05:19:47 74° WNW 05:25:24 10° NNE
FALCON 9 DEB 4.4 05:21:07 28° N 05:21:07 28° N 05:23:26 10° NE
SJ-12 3.8 05:16:38 10° N 05:20:44 61° WNW 05:24:47 10° SSW
Cosmos 1862 3.3 05:17:45 10° S 05:21:41 81° E 05:25:39 10° N
COSMO-SKYMED 1 2.4 05:18:44 10° S 05:23:03 68° W 05:25:48 22° NNW
H-2A R/B 2.8 05:25:07 10° N 05:28:40 45° WNW 05:32:15 10° SSW
Cosmos 1634 Rocket 4.0 05:24:50 10° NNW 05:30:56 55° W 05:36:57 10° SSW
Cosmos 1867 4.4 05:30:57 28° W 05:31:56 30° WSW 05:36:36 10° S
Cosmos 836 Rocket 4.4 05:27:51 16° NNW 05:32:08 78° WSW 05:37:19 10° SSE
CZ-4B R/B 3.8 05:34:36 10° NNE 05:38:03 44° E 05:41:29 10° S
CZ-4B R/B 4.2 05:37:07 10° ESE 05:39:16 16° ENE 05:41:24 10° NNE
MOS 1-B Rocket 4.4 05:33:16 10° SSW 05:39:19 41° W 05:44:44 10° NNW
Cosmos 1408 Rocket 4.0 05:36:32 10° S 05:40:47 62° E 05:45:02 10° NNE
Cosmos 1656 Rocket 3.5 05:38:06 10° SW 05:43:27 65° WNW 05:48:54 10° NNE
Cosmos 1503 Rocket 4.0 05:38:39 10° SSW 05:43:55 85° WNW 05:49:16 10° NNE
CZ-4C R/B 2.6 05:40:57 10° S 05:44:04 64° WSW 05:46:01 21° NNW
DMSP B5D2-2 4.3 05:39:16 10° SSE 05:44:27 74° ENE 05:49:40 10° N
CZ-2C R/B 3.0 05:43:15 10° S 05:48:29 44° W 05:53:38 10° NNW
Cosmos 1943 Rocket 3.3 05:48:15 21° WNW 05:49:28 22° NW 05:53:51 10° N
Cosmos 1486 Rocket 4.3 05:46:37 10° SW 05:51:39 43° WNW 05:56:42 10° N
SL-8 R/B 3.8 05:54:22 20° WNW 05:57:41 74° NNE 06:02:28 10° ESE
Cosmos 1515 Rocket 3.5 05:53:50 10° N 05:58:14 86° E 06:02:33 10° S
Meteor 2-15 4.4 05:53:31 10° N 05:59:35 78° W 06:05:37 10° S
Cosmos 2180 Rocket 4.4 05:55:05 10° NNW 06:01:12 65° W 06:07:15 10° S
Meteor 1-27 Rocket 4.0 05:55:37 10° N 06:01:16 74° E 06:07:00 10° SSE
SJ 16-02 2.0 06:01:00 10° S 06:05:17 59° ESE 06:09:37 10° NNE
Cosmos 773 Rocket 4.1 06:00:19 10° NNW 06:05:34 81° ENE 06:10:45 10° SSE
CENTAUR R/B 3.7 06:03:21 15° WNW 06:07:11 26° NNW 06:13:09 10° NNE
NOAA 11 4.2 06:04:18 10° N 06:09:40 59° WNW 06:15:02 10° SSW
CZ-3 R/B 4.3 06:06:38 10° SSW 06:09:58 12° S 06:12:24 10° SSE
Alouette 2 Rocket 4.1 06:07:47 10° N 06:11:32 50° ENE 06:15:00 10° SSE
Meteor 2-19 Rocket 4.4 06:05:41 10° SSW 06:11:42 74° W 06:17:47 10° N
Cosmos 1340 Rocket 3.0 06:09:39 10° S 06:13:34 73° E 06:17:33 10° NNE
NOAA 12 4.0 06:09:35 10° NNE 06:14:53 81° WNW 06:20:06 10° SSW
Envisat 4.0 06:11:39 10° NNW 06:15:37 23° WNW 06:19:33 10° WSW
Cosmos 1500 Rocket 3.6 06:12:32 10° S 06:16:59 87° E 06:21:29 10° N
SL-27 R/B 2.4 06:15:10 10° NNW 06:18:47 88° WSW 06:22:18 10° SSE
DELTA 2 R/B (1) 4.1 06:14:57 10° WSW 06:20:23 58° S 06:25:49 10° E
Cosmos 1939 Rocket 2.7 06:17:25 10° N 06:21:22 75° WNW 06:25:14 10° SSW
Cosmos 2098 Rocket 4.4 06:19:15 10° WSW 06:22:04 18° WNW 06:25:19 10° NNW
Cosmos 1805 Rocket 4.0 06:24:17 10° S 06:28:38 67° E 06:33:00 10° NNE
Sich 1 3.9 06:26:19 10° S 06:30:30 54° E 06:34:41 10° NNE
H-2A R/B 2.2 06:27:03 10° S 06:31:11 54° W 06:35:27 10° NNW
Cosmos 2026 Rocket 4.4 06:25:01 10° S 06:31:18 71° E 06:37:35 10° NNE
Okean O Rocket 4.0 06:28:00 10° NE 06:31:48 27° E 06:35:33 10° SSE
Meteor 1-25 Rocket 4.5 06:27:16 10° S 06:32:53 77° E 06:38:28 10° NNE
ATLAS 3B R/B 2.9 06:26:56 10° SSW 06:33:24 76° ESE 06:40:13 10° NE
FALCON 9 R/B 4.3 06:17:06 10° W 06:35:11 41° SSW 06:40:51 10° SE
Cosmos 1174 2.9 06:34:01 10° SW 06:36:58 78° WNW 06:40:03 10° NNE
Cosmos 1500 4.2 06:33:27 10° S 06:37:10 52° E 06:40:53 10° NNE
ATLAS 5 CENTAUR R/B 1.2 06:33:38 10° SW 06:37:26 83° NW 06:41:41 10° NE
ADEOS 4.4 06:35:21 10° N 06:39:45 28° WNW 06:44:09 10° WSW
Cosmos 158 Rocket 4.2 06:35:49 10° NNW 06:40:57 74° ENE 06:46:11 10° SSE
